Regional Weather Roundup
Issued by NWS

Home | Current Version | Previous Version | Text Only | Print | Product List | Glossary On
Versions: 1 2 3 4 5 6 7 8 9 10 11 12 13 14 15 16 17 18 19 20 21 22 23 24 25 26 27 28 29 30 31 32 33 34 35 36 37 38 39 40 41 42 43 44 45 46 47 48 49 50
000
ASUS43 KMPX 051401
RWRMN
WEATHER ROUNDUP FOR MINNESOTA
NATIONAL WEATHER SERVICE TWIN CITIES/CHANHASSEN MN
900 AM CDT TUE MAY 05 2015


NOTE: "FAIR" INDICATES FEW OR NO CLOUDS BELOW 12,000 FEET WITH NO
SIGNIFICANT WEATHER AND/OR OBSTRUCTIONS TO VISIBILITY. N/A MEANS
CURRENT SKY AND/OR WEATHER CONDITIONS ARE NOT AVAILABLE.

MNZ060>063-068>070-051500-
   Twin Cities Metro

CITY           SKY/WX    TMP DP  RH WIND       PRES   REMARKS
TWIN CITIES    MOSUNNY   59  40  49 E12       30.21R
ST PAUL        MOSUNNY   59  41  51 SE8       30.22S
CRYSTAL        SUNNY     59  39  47 SE12      30.20S
BLAINE         MOSUNNY   59  39  47 E9        30.21S
LAKEVILLE      SUNNY     55  45  67 E12       30.20S
EDEN PRAIRIE   SUNNY     58  40  51 E9        30.19S
SOUTH ST PAUL  MOSUNNY   60  39  46 SE5       30.21S
LAKE ELMO      FAIR      57  39  51 E8        30.23S
$$
MNZ001>005-007-008-013>017-022>024-027-028-051500-
   Northwest Minnesota

CITY           SKY/WX    TMP DP  RH WIND       PRES   REMARKS
BEMIDJI        SUNNY     59  29  31 SE10      30.22F
HALLOCK        SUNNY     59  25  27 S15       30.16F
ROSEAU         SUNNY     61  28  29 S14       30.19S
WARROAD        SUNNY     61  34  36 S6        30.20S
THIEF RVR FALL SUNNY     61  25  25 S16       30.20S
CROOKSTON      SUNNY     61  27  27 S14       30.19F
FOSSTON        SUNNY     61  21  21 SE13      30.21S
DETROIT LAKES  SUNNY     55  28  35 SE12      30.21F
MOORHEAD       SUNNY     61  25  25 SE13G18   30.18F
PARK RAPIDS    SUNNY     60  24  25 SE15      30.22S
MAHNOMEN       FAIR      57  26  30 SE12      30.21S
$$
MNZ006-009>011-018-025>026-051500-
   North Central Minnesota

CITY           SKY/WX    TMP DP  RH WIND       PRES   REMARKS
BAUDETTE       SUNNY     57  34  41 S8        30.22S
FLAG ISLAND    SUNNY     48  39  71 SE9       30.20R
INTL FALLS     SUNNY     59  28  30 S6        30.23S
WASKISH        SUNNY     61  30  31 SE5       30.22S
BIG FORK       SUNNY     59  28  31 S6        30.25S
LONGVILLE      SUNNY     55  27  33 SE7       30.24S
GRAND RAPIDS   SUNNY     54  27  35 SE9       30.27S
CRANE LAKE     SUNNY     55  27  33 S5        30.28R
COOK           SUNNY     57  27  30 SE8       30.27R
WALKER         FAIR      55  31  40 E3        30.23F
$$
MNZ012-019>021-037-051500-
   Northeast Minnesota

CITY           SKY/WX    TMP DP  RH WIND       PRES   REMARKS
DULUTH         SUNNY     57  30  35 S9        30.28S
ELY            SUNNY     59  21  23 S10       30.27S
HIBBING        SUNNY     55  26  32 VRB6      30.27S
EVELETH        SUNNY     57  28  33 S7        30.28S
DULUTH HARBOR    N/A     45  32  61 CALM      30.31S
TWO HARBORS    SUNNY     61  36  39 CALM      30.28S
SILVER BAY     SUNNY     61  28  29 CALM      30.28S
GRAND MARAIS     N/A     46  31  55 CALM      30.32R
G MARAIS ARPRT SUNNY     59  23  25 S6        30.31R
$$
MNZ029>031-032-039>041-046>048-054>057-064-051500-
   West Central Minnesota

CITY           SKY/WX    TMP DP  RH WIND       PRES   REMARKS
FERGUS FALLS   SUNNY     61  27  27 SE10      30.19F
WHEATON        SUNNY     61  28  29 SE16      30.18F
MORRIS         SUNNY     63  28  27 E13       30.17R
ALEXANDRIA     SUNNY     58  27  30 E12       30.20F
ELBOW LAKE     FAIR      60  27  28 SE13G20   30.18S
WADENA         SUNNY     54  30  40 E8        30.21F
APPLETON       SUNNY     61  28  29 E10       30.16S
BENSON         SUNNY     61  27  27 SE8       30.17F
ORTONVILLE     SUNNY     55  28  35 SE6       30.17S
MADISON        SUNNY     55  27  33 E5        30.16F
WILLMAR        FAIR      61  30  31 E9        30.18F
$$
MNZ033>034-036-042>043-049>051-058-059-051500-
   Central Minnesota

CITY           SKY/WX    TMP DP  RH WIND       PRES   REMARKS
ST CLOUD       SUNNY     57  35  43 E9        30.20F
SAUK CENTRE    FAIR      56  33  41 E12       30.20S
PAYNESVILLE    SUNNY     55  32  42 N7        30.19F
AITKIN         SUNNY     59  28  31 E6        30.23F
PINE RIVER     SUNNY     57  34  41 SE8       30.26S
BRAINERD       SUNNY     58  32  37 SE6       30.24S
STAPLES        SUNNY     54  28  37 E6        30.22F
LONG PRAIRIE   FAIR      54  32  43 E10       30.21S
LITTLE FALLS   SUNNY     59  32  36 E10       30.21S
LITCHFIELD     SUNNY     59  34  38 E10       30.19S
BUFFALO        SUNNY     56  38  50 E10       30.21S
MAPLE LAKE     SUNNY     57  41  55 E10       30.21S
$$
MNZ037-044-045-052-053-051500-
   East Central Minnesota

CITY           SKY/WX    TMP DP  RH WIND       PRES   REMARKS
PRINCETON      SUNNY     59  37  44 E8        30.22S
MORA           SUNNY     55  34  44 E6        30.26S
CAMBRIDGE      SUNNY     61  39  44 E10       30.21S
RUSH CITY      SUNNY     58  36  42 SE7       30.24S
MOOSE LAKE     SUNNY     54  32  43 CALM      30.25S
HINCKLEY       FAIR      57  32  38 E9        30.25S
CLOQUET        SUNNY     54  28  37 SE7       30.28S
MCGREGOR       SUNNY     57  34  41 SE7       30.27S
$$
MNZ071>073-080-081-089-090-097-098-051500-
   Southwest Minnesota

CITY           SKY/WX    TMP DP  RH WIND       PRES   REMARKS
MONTEVIDEO     SUNNY     63  30  29 SE9       30.17S
GRANITE FALLS  SUNNY     58  31  35 NE8       30.17S
CANBY          SUNNY     54  29  37 E5        30.17S
MARSHALL       SUNNY     57  28  33 E8        30.15S
REDWOOD FALLS  MOSUNNY   61  32  33 E9        30.15F
OLIVIA         SUNNY     59  30  33 E13       30.15F
PIPESTONE      MOSUNNY   57  28  33 E9        30.12S
WINDOM         PTSUNNY   57  34  41 E12       30.13F
WORTHINGTON    CLOUDY    57  34  41 E13       30.13S
JACKSON        CLOUDY    55  37  50 E9        30.14R
TRACY          MOSUNNY   59  32  36 E9        30.15S
SLAYTON        MOSUNNY   59  30  32 E13       30.14S
$$
MNZ065>067-074>077-082>085-091>093-051500-
   South Central Minnesota

CITY           SKY/WX    TMP DP  RH WIND       PRES   REMARKS
MANKATO        MOSUNNY   57  43  58 E14       30.17R
NEW ULM        MOSUNNY   57  37  47 E12       30.15S
ST JAMES       PTSUNNY   59  37  44 E13       30.15S
FAIRMONT       CLOUDY    55  45  67 E14       30.13S
GLENCOE        SUNNY     59  42  52 E14       30.17F
FARIBAULT      MOSUNNY   57  43  58 E12       30.19R
OWATONNA       PTSUNNY   59  46  63 E17       30.18R
WASECA         CLOUDY    55  45  67 E16       30.18S
ALBERT LEA     CLOUDY    54  54 100 E8        30.17R
$$
MNZ078>079-086>088-094>096-051500-
   Southeast Minnesota

CITY           SKY/WX    TMP DP  RH WIND       PRES   REMARKS
ROCHESTER      LGT RAIN  50  48  93 E16G24    30.22R FOG
RED WING       MOSUNNY   61  39  44 SE10G16   30.21S
STANTON        MOSUNNY   60  42  51 E12G17    30.18F
DODGE CENTER   CLOUDY    55  48  76 E17       30.19S
WINONA         CLOUDY    55  43  62 SE10      30.24R
AUSTIN         CLOUDY    52  48  87 E14G20    30.18R
PRESTON        CLOUDY    50  47  92 E14G20    30.21S
$$
ABBREVIATIONS USED IN REMARKS
   TC - TEMPERATURES IN CELSIUS
  WCI - WIND CHILL INDEX
   HX - HEAT INDEX
  VSB - VISIBILITY
$$


USA.gov is the U.S. government's official web portal to all federal, state and local government web resources and services.